| time (UTC) | temp F | wind direction | speed knots | gust knots | rain 1hr in | rain 24hr in | rain mn in | humidity % | barometer mb |
| 20260906230320 | 72 | 179 | 22.6 | 29.5 | 0.00 | 0.00 | 0.00 | 18 | 29.5 |
| 20260906225821 | 71 | 176 | 20.0 | 30.4 | 0.00 | 0.00 | 0.00 | 18 | 29.5 |
| 20260906225321 | 72 | 179 | 18.2 | 23.5 | 0.00 | 0.00 | 0.00 | 18 | 29.5 |
| 20260906224821 | 72 | 173 | 18.2 | 22.6 | 0.00 | 0.00 | 0.00 | 18 | 29.5 |
| 20260906224320 | 73 | 174 | 18.2 | 26.9 | 0.00 | 0.00 | 0.00 | 17 | 29.5 |
| 20260906223820 | 74 | 174 | 18.2 | 25.2 | 0.00 | 0.00 | 0.00 | 16 | 29.5 |
| 20260906223320 | 72 | 178 | 20.9 | 27.8 | 0.00 | 0.00 | 0.00 | 18 | 29.5 |
| 20260906222821 | 72 | 180 | 19.1 | 27.8 | 0.00 | 0.00 | 0.00 | 17 | 29.5 |
| 20260906221820 | 73 | 180 | 18.2 | 23.5 | 0.00 | 0.00 | 0.00 | 18 | 29.5 |
| 20260906221321 | 74 | 180 | 17.4 | 24.3 | 0.00 | 0.00 | 0.00 | 17 | 29.5 |
| 20260906220821 | 74 | 176 | 15.6 | 21.7 | 0.00 | 0.00 | 0.00 | 18 | 29.5 |
| 20260906220321 | 73 | 180 | 15.6 | 23.5 | 0.00 | 0.00 | 0.00 | 17 | 29.5 |
| 20260906215820 | 74 | 181 | 16.5 | 22.6 | 0.00 | 0.00 | 0.00 | 17 | 29.5 |
| 20260906215320 | 73 | 182 | 17.4 | 22.6 | 0.00 | 0.00 | 0.00 | 17 | 29.5 |
| 20260906214820 | 74 | 195 | 20.0 | 24.3 | 0.00 | 0.00 | 0.00 | 17 | 29.5 |
| 20260906214320 | 74 | 186 | 18.2 | 24.3 | 0.00 | 0.00 | 0.00 | 17 | 29.5 |
| 20260906213820 | 74 | 191 | 14.8 | 22.6 | 0.00 | 0.00 | 0.00 | 16 | 29.5 |
| 20260906213320 | 74 | 182 | 17.4 | 21.7 | 0.00 | 0.00 | 0.00 | 16 | 29.5 |
| 20260906212821 | 74 | 179 | 17.4 | 28.7 | 0.00 | 0.00 | 0.00 | 15 | 29.5 |
| 20260906212320 | 74 | 179 | 20.0 | 26.9 | 0.00 | 0.00 | 0.00 | 15 | 29.5 |
| 20260906211820 | 74 | 185 | 22.6 | 32.2 | 0.00 | 0.00 | 0.00 | 15 | 29.5 |
| 20260906211322 | 76 | 180 | 21.7 | 30.4 | 0.00 | 0.00 | 0.00 | 14 | 29.5 |
| 20260906210821 | 75 | 190 | 22.6 | 31.3 | 0.00 | 0.00 | 0.00 | 14 | 29.5 |
| 20260906210321 | 75 | 188 | 22.6 | 33.0 | 0.00 | 0.00 | 0.00 | 15 | 29.5 |
| 20260906205821 | 75 | 184 | 24.3 | 33.9 | 0.00 | 0.00 | 0.00 | 14 | 29.5 |
| 20260906205321 | 75 | 190 | 22.6 | 30.4 | 0.00 | 0.00 | 0.00 | 15 | 29.5 |
| 20260906204820 | 75 | 189 | 23.5 | 32.2 | 0.00 | 0.00 | 0.00 | 14 | 29.5 |
| 20260906204322 | 76 | 186 | 23.5 | 30.4 | 0.00 | 0.00 | 0.00 | 14 | 29.5 |
| 20260906203321 | 77 | 186 | 23.5 | 30.4 | 0.00 | 0.00 | 0.00 | 13 | 29.4 |
| 20260906202821 | 76 | 200 | 21.7 | 26.1 | 0.00 | 0.00 | 0.00 | 14 | 29.5 |
| 20260906202320 | 75 | 197 | 22.6 | 28.7 | 0.00 | 0.00 | 0.00 | 14 | 29.5 |
| 20260906201820 | 74 | 196 | 26.1 | 31.3 | 0.00 | 0.00 | 0.00 | 13 | 29.5 |
| 20260906200821 | 75 | 193 | 24.3 | 31.3 | 0.00 | 0.00 | 0.00 | 13 | 29.5 |
| 20260906200320 | 75 | 190 | 22.6 | 28.7 | 0.00 | 0.00 | 0.00 | 13 | 29.5 |
| 20260906195821 | 76 | 189 | 24.3 | 29.5 | 0.00 | 0.00 | 0.00 | 14 | 29.5 |
| 20260906195320 | 74 | 200 | 20.0 | 28.7 | 0.00 | 0.00 | 0.00 | 13 | 29.5 |
| 20260906194821 | 75 | 190 | 21.7 | 29.5 | 0.00 | 0.00 | 0.00 | 14 | 29.5 |
| 20260906194321 | 75 | 202 | 20.0 | 28.7 | 0.00 | 0.00 | 0.00 | 14 | 29.5 |
| 20260906193821 | 75 | 180 | 21.7 | 31.3 | 0.00 | 0.00 | 0.00 | 14 | 29.5 |
| 20260906192821 | 75 | 187 | 21.7 | 31.3 | 0.00 | 0.00 | 0.00 | 14 | 29.5 |
| 20260906192321 | 73 | 191 | 20.0 | 26.1 | 0.00 | 0.00 | 0.00 | 15 | 29.5 |
| 20260906191821 | 74 | 192 | 22.6 | 29.5 | 0.00 | 0.00 | 0.00 | 15 | 29.5 |
| 20260906191320 | 73 | 187 | 20.9 | 26.9 | 0.00 | 0.00 | 0.00 | 15 | 29.5 |
| 20260906190820 | 73 | 191 | 23.5 | 29.5 | 0.00 | 0.00 | 0.00 | 13 | 29.5 |
| 20260906190321 | 73 | 193 | 20.0 | 25.2 | 0.00 | 0.00 | 0.00 | 15 | 29.5 |
| 20260906185320 | 73 | 181 | 20.0 | 27.8 | 0.00 | 0.00 | 0.00 | 14 | 29.5 |
| 20260906184821 | 73 | 192 | 19.1 | 30.4 | 0.00 | 0.00 | 0.00 | 15 | 29.5 |
| 20260906184321 | 73 | 179 | 15.6 | 26.9 | 0.00 | 0.00 | 0.00 | 18 | 29.6 |
| 20260906183820 | 72 | 181 | 17.4 | 26.9 | 0.00 | 0.00 | 0.00 | 16 | 29.6 |
| 20260906183320 | 72 | 179 | 11.3 | 20.9 | 0.00 | 0.00 | 0.00 | 19 | 29.6 |
| 20260906182320 | 73 | 186 | 9.6 | 15.6 | 0.00 | 0.00 | 0.00 | 20 | 29.6 |
| 20260906181321 | 70 | 200 | 8.7 | 12.2 | 0.00 | 0.00 | 0.00 | 24 | 29.6 |
| 20260906180821 | 70 | 185 | 7.8 | 11.3 | 0.00 | 0.00 | 0.00 | 24 | 29.6 |
| 20260906180320 | 71 | 181 | 7.8 | 12.2 | 0.00 | 0.00 | 0.00 | 22 | 29.6 |
| 20260906175844 | 71 | 180 | 9.6 | 13.9 | 0.00 | 0.00 | 0.00 | 20 | 29.6 |
| 20260906175321 | 69 | 177 | 9.6 | 13.9 | 0.00 | 0.00 | 0.00 | 21 | 29.6 |
| 20260906174820 | 69 | 180 | 8.7 | 11.3 | 0.00 | 0.00 | 0.00 | 28 | 29.6 |
| 20260906174320 | 68 | 179 | 8.7 | 13.0 | 0.00 | 0.00 | 0.00 | 23 | 29.6 |
| 20260906173821 | 69 | 176 | 8.7 | 10.4 | 0.00 | 0.00 | 0.00 | 21 | 29.6 |
| 20260906173322 | 69 | 177 | 7.8 | 10.4 | 0.00 | 0.00 | 0.00 | 22 | 29.6 |
| 20260906172821 | 69 | 175 | 8.7 | 10.4 | 0.00 | 0.00 | 0.00 | 22 | 29.6 |
| 20260906172321 | 68 | 170 | 7.8 | 10.4 | 0.00 | 0.00 | 0.00 | 22 | 29.6 |
| 20260906171821 | 67 | 181 | 7.8 | 10.4 | 0.00 | 0.00 | 0.00 | 26 | 29.7 |
| 20260906171320 | 68 | 173 | 9.6 | 11.3 | 0.00 | 0.00 | 0.00 | 21 | 29.6 |
| 20260906170821 | 67 | 163 | 7.0 | 10.4 | 0.00 | 0.00 | 0.00 | 22 | 29.7 |
| 20260906170320 | 67 | 150 | 9.6 | 13.0 | 0.00 | 0.00 | 0.00 | 21 | 29.7 |
| 20260906165821 | 65 | 162 | 5.2 | 9.6 | 0.00 | 0.00 | 0.00 | 30 | 29.7 |
| 20260906165320 | 67 | 142 | 7.0 | 11.3 | 0.00 | 0.00 | 0.00 | 28 | 29.7 |
| 20260906164820 | 65 | 142 | 6.1 | 7.8 | 0.00 | 0.00 | 0.00 | 25 | 29.7 |
| 20260906164320 | 63 | 141 | 5.2 | 7.8 | 0.00 | 0.00 | 0.00 | 27 | 29.7 |
| 20260906163821 | 62 | 164 | 6.1 | 8.7 | 0.00 | 0.00 | 0.00 | 30 | 29.7 |
| 20260906163323 | 64 | 144 | 6.1 | 7.8 | 0.00 | 0.00 | 0.00 | 28 | 29.7 |
| 20260906162821 | 62 | 163 | 5.2 | 7.0 | 0.00 | 0.00 | 0.00 | 31 | 29.8 |
| 20260906161820 | 62 | 147 | 6.1 | 7.8 | 0.00 | 0.00 | 0.00 | 29 | 29.8 |
| 20260906161320 | 62 | 149 | 6.1 | 7.8 | 0.00 | 0.00 | 0.00 | 28 | 29.7 |
| 20260906160820 | 61 | 152 | 6.1 | 7.0 | 0.00 | 0.00 | 0.00 | 30 | 29.8 |
| 20260906160320 | 60 | 161 | 5.2 | 7.0 | 0.00 | 0.00 | 0.00 | 30 | 29.8 |
| 20260906155820 | 61 | 144 | 5.2 | 7.0 | 0.00 | 0.00 | 0.00 | 29 | 29.8 |
| 20260906155320 | 60 | 167 | 5.2 | 7.0 | 0.00 | 0.00 | 0.00 | 30 | 29.8 |
| 20260906154824 | 61 | 138 | 5.2 | 7.8 | 0.00 | 0.00 | 0.00 | 30 | 29.8 |
| 20260906154320 | 59 | 141 | 6.1 | 8.7 | 0.00 | 0.00 | 0.00 | 31 | 29.8 |
| 20260906153821 | 59 | 139 | 7.8 | 8.7 | 0.00 | 0.00 | 0.00 | 30 | 29.8 |
| 20260906153321 | 58 | 137 | 7.8 | 8.7 | 0.00 | 0.00 | 0.00 | 31 | 29.8 |
| 20260906152820 | 58 | 140 | 7.0 | 7.8 | 0.00 | 0.00 | 0.00 | 30 | 29.8 |
| 20260906152321 | 58 | 141 | 6.1 | 8.7 | 0.00 | 0.00 | 0.00 | 31 | 29.8 |
| 20260906151821 | 57 | 142 | 6.1 | 8.7 | 0.00 | 0.00 | 0.00 | 31 | 29.8 |
| 20260906151320 | 57 | 136 | 7.0 | 8.7 | 0.00 | 0.00 | 0.00 | 32 | 29.8 |
| 20260906150822 | 56 | 138 | 7.0 | 8.7 | 0.00 | 0.00 | 0.00 | 32 | 29.8 |
| 20260906150321 | 57 | 146 | 5.2 | 7.0 | 0.00 | 0.00 | 0.00 | 32 | 29.8 |
| 20260906145820 | 58 | 150 | 4.3 | 6.1 | 0.00 | 0.00 | 0.00 | 31 | 29.8 |
| 20260906145320 | 57 | 136 | 4.3 | 6.1 | 0.00 | 0.00 | 0.00 | 32 | 29.8 |
| 20260906144821 | 57 | 141 | 4.3 | 5.2 | 0.00 | 0.00 | 0.00 | 31 | 29.8 |
| 20260906144320 | 57 | 136 | 4.3 | 5.2 | 0.00 | 0.00 | 0.00 | 31 | 29.8 |
| 20260906143821 | 57 | 129 | 3.5 | 5.2 | 0.00 | 0.00 | 0.00 | 34 | 29.8 |
| 20260906143320 | 55 | 118 | 2.6 | 4.3 | 0.00 | 0.00 | 0.00 | 33 | 29.8 |
| 20260906142820 | 56 | 143 | 2.6 | 3.5 | 0.00 | 0.00 | 0.00 | 33 | 29.8 |
| 20260906142320 | 56 | 145 | 2.6 | 3.5 | 0.00 | 0.00 | 0.00 | 33 | 29.8 |
| 20260906141820 | 57 | 173 | 1.7 | 3.5 | 0.00 | 0.00 | 0.00 | 31 | 29.8 |
| 20260906141321 | 56 | 156 | 2.6 | 3.5 | 0.00 | 0.00 | 0.00 | 32 | 29.8 |
| 20260906140820 | 54 | 225 | 1.7 | 5.2 | 0.00 | 0.00 | 0.00 | 35 | 29.9 |
| 20260906140321 | 57 | 156 | 1.7 | 2.6 | 0.00 | 0.00 | 0.00 | 31 | 29.8 |
| 20260906135829 | 55 | 157 | 1.7 | 3.5 | 0.00 | 0.00 | 0.00 | 33 | 29.8 |
| 20260906135321 | 53 | 155 | 3.5 | 5.2 | 0.00 | 0.00 | 0.00 | 36 | 29.9 |
| 20260906134822 | 53 | 187 | 2.6 | 4.3 | 0.00 | 0.00 | 0.00 | 34 | 29.9 |
| 20260906134321 | 52 | 135 | 1.7 | 3.5 | 0.00 | 0.00 | 0.00 | 36 | 29.9 |
| 20260906133821 | 52 | 110 | 1.7 | 3.5 | 0.00 | 0.00 | 0.00 | 36 | 29.9 |
| 20260906133321 | 52 | 45 | 0.9 | 1.7 | 0.00 | 0.00 | 0.00 | 35 | 29.9 |
| 20260906132820 | 51 | 332 | 0.9 | 2.6 | 0.00 | 0.00 | 0.00 | 36 | 29.9 |
| 20260906132321 | 51 | 352 | 2.6 | 3.5 | 0.00 | 0.00 | 0.00 | 36 | 29.9 |
| 20260906131820 | 51 | 345 | 1.7 | 3.5 | 0.00 | 0.00 | 0.00 | 35 | 29.9 |
| 20260906131320 | 51 | 2 | 1.7 | 5.2 | 0.00 | 0.00 | 0.00 | 36 | 29.9 |
| 20260906130821 | 50 | 345 | 2.6 | 3.5 | 0.00 | 0.00 | 0.00 | 37 | 29.9 |
| 20260906130322 | 51 | 352 | 1.7 | 3.5 | 0.00 | 0.00 | 0.00 | 36 | 29.9 |
| 20260906125820 | 50 | 336 | 1.7 | 3.5 | 0.00 | 0.00 | 0.00 | 37 | 29.9 |
| 20260906125321 | 51 | 347 | 1.7 | 2.6 | 0.00 | 0.00 | 0.00 | 36 | 29.9 |
| 20260906124820 | 51 | 326 | 1.7 | 2.6 | 0.00 | 0.00 | 0.00 | 36 | 29.9 |
| 20260906124320 | 51 | 327 | 0.9 | 2.6 | 0.00 | 0.00 | 0.00 | 36 | 29.9 |
| 20260906123820 | 50 | 7 | 1.7 | 2.6 | 0.00 | 0.00 | 0.00 | 36 | 29.9 |
| 20260906123321 | 50 | 351 | 1.7 | 3.5 | 0.00 | 0.00 | 0.00 | 36 | 29.9 |
| 20260906122820 | 51 | 248 | 0.9 | 2.6 | 0.00 | 0.00 | 0.00 | 36 | 29.9 |
| 20260906122321 | 51 | 187 | 1.7 | 3.5 | 0.00 | 0.00 | 0.00 | 36 | 29.9 |
| 20260906121821 | 52 | 191 | 1.7 | 4.3 | 0.00 | 0.00 | 0.00 | 35 | 29.9 |
| 20260906121321 | 53 | 135 | 2.6 | 3.5 | 0.00 | 0.00 | 0.00 | 33 | 29.9 |
| 20260906120820 | 52 | 138 | 2.6 | 3.5 | 0.00 | 0.00 | 0.00 | 34 | 29.9 |
| 20260906120320 | 51 | 177 | 3.5 | 5.2 | 0.00 | 0.00 | 0.00 | 36 | 29.9 |
| 20260906115820 | 52 | 149 | 3.5 | 5.2 | 0.00 | 0.00 | 0.00 | 35 | 29.9 |
| 20260906115321 | 51 | 151 | 3.5 | 5.2 | 0.00 | 0.00 | 0.00 | 35 | 29.9 |
| 20260906114820 | 51 | 180 | 3.5 | 4.3 | 0.00 | 0.00 | 0.00 | 37 | 29.9 |
| 20260906114321 | 51 | 156 | 4.3 | 6.1 | 0.00 | 0.00 | 0.00 | 36 | 29.9 |
| 20260906113821 | 51 | 166 | 3.5 | 6.1 | 0.00 | 0.00 | 0.00 | 36 | 29.9 |
| 20260906113321 | 51 | 179 | 4.3 | 5.2 | 0.00 | 0.00 | 0.00 | 36 | 29.9 |
| 20260906112820 | 52 | 156 | 4.3 | 6.1 | 0.00 | 0.00 | 0.00 | 35 | 29.9 |
| 20260906112320 | 51 | 178 | 4.3 | 6.1 | 0.00 | 0.00 | 0.00 | 36 | 29.9 |
| 20260906111820 | 52 | 144 | 5.2 | 7.0 | 0.00 | 0.00 | 0.00 | 35 | 29.9 |
| 20260906111406 | 51 | 171 | 4.3 | 7.0 | 0.00 | 0.00 | 0.00 | 35 | 29.9 |
| 20260906110821 | 51 | 175 | 5.2 | 6.1 | 0.00 | 0.00 | 0.00 | 36 | 29.9 |
| 20260906110321 | 52 | 174 | 5.2 | 7.0 | 0.00 | 0.00 | 0.00 | 35 | 29.9 |
| 20260906105821 | 52 | 158 | 6.1 | 7.0 | 0.00 | 0.00 | 0.00 | 35 | 29.9 |
| 20260906105320 | 52 | 173 | 5.2 | 7.0 | 0.00 | 0.00 | 0.00 | 35 | 29.9 |
| 20260906104820 | 52 | 180 | 5.2 | 7.0 | 0.00 | 0.00 | 0.00 | 35 | 29.9 |
| 20260906104321 | 52 | 171 | 5.2 | 6.1 | 0.00 | 0.00 | 0.00 | 35 | 29.9 |
| 20260906103821 | 52 | 164 | 5.2 | 7.0 | 0.00 | 0.00 | 0.00 | 34 | 29.9 |
| 20260906103321 | 53 | 142 | 4.3 | 6.1 | 0.00 | 0.00 | 0.00 | 33 | 29.9 |
| 20260906102820 | 52 | 177 | 3.5 | 6.1 | 0.00 | 0.00 | 0.00 | 34 | 29.9 |
| 20260906102321 | 52 | 178 | 3.5 | 6.1 | 0.00 | 0.00 | 0.00 | 34 | 29.9 |
| 20260906101821 | 52 | 179 | 4.3 | 7.0 | 0.00 | 0.00 | 0.00 | 34 | 29.9 |
| 20260906101320 | 52 | 178 | 5.2 | 7.0 | 0.00 | 0.00 | 0.00 | 34 | 29.9 |
| 20260906100824 | 53 | 158 | 4.3 | 7.0 | 0.00 | 0.00 | 0.00 | 32 | 29.9 |
| 20260906100320 | 54 | 180 | 2.6 | 4.3 | 0.00 | 0.00 | 0.00 | 31 | 29.8 |
| 20260906095821 | 53 | 180 | 3.5 | 5.2 | 0.00 | 0.00 | 0.00 | 33 | 29.9 |
| 20260906095321 | 54 | 150 | 2.6 | 4.3 | 0.00 | 0.00 | 0.00 | 30 | 29.8 |
| 20260906094321 | 52 | 156 | 3.5 | 5.2 | 0.00 | 0.00 | 0.00 | 33 | 29.9 |
| 20260906093821 | 52 | 183 | 2.6 | 5.2 | 0.00 | 0.00 | 0.00 | 34 | 29.9 |
| 20260906093321 | 53 | 78 | 1.7 | 2.6 | 0.00 | 0.00 | 0.00 | 32 | 29.8 |
| 20260906092820 | 54 | 211 | 0.9 | 2.6 | 0.00 | 0.00 | 0.00 | 31 | 29.8 |
| 20260906092321 | 55 | 16 | 1.7 | 3.5 | 0.00 | 0.00 | 0.00 | 29 | 29.8 |
| 20260906091824 | 55 | 294 | 1.7 | 3.5 | 0.00 | 0.00 | 0.00 | 30 | 29.8 |
| 20260906091321 | 55 | 3 | 3.5 | 4.3 | 0.00 | 0.00 | 0.00 | 29 | 29.8 |
| 20260906090821 | 55 | 358 | 1.7 | 3.5 | 0.00 | 0.00 | 0.00 | 30 | 29.8 |
| 20260906090321 | 55 | 2.6 | 4.3 | 0.00 | 0.00 | 0.00 | 30 | 29.8 | |
| 20260906085821 | 55 | 2.6 | 3.5 | 0.00 | 0.00 | 0.00 | 30 | 29.8 | |
| 20260906085320 | 55 | 3.5 | 4.3 | 0.00 | 0.00 | 0.00 | 30 | 29.8 | |
| 20260906084820 | 55 | 284 | 0.9 | 2.6 | 0.00 | 0.00 | 0.00 | 29 | 29.8 |
| 20260906084320 | 55 | 3.5 | 5.2 | 0.00 | 0.00 | 0.00 | 29 | 29.8 | |
| 20260906083820 | 55 | 3.5 | 4.3 | 0.00 | 0.00 | 0.00 | 30 | 29.8 | |
| 20260906083321 | 55 | 3.5 | 5.2 | 0.00 | 0.00 | 0.00 | 30 | 29.8 | |
| 20260906082821 | 55 | 1 | 4.3 | 5.2 | 0.00 | 0.00 | 0.00 | 30 | 29.8 |
| 20260906082321 | 55 | 359 | 3.5 | 5.2 | 0.00 | 0.00 | 0.00 | 30 | 29.8 |
| 20260906081820 | 54 | 328 | 3.5 | 5.2 | 0.00 | 0.00 | 0.00 | 31 | 29.8 |
| 20260906081321 | 54 | 357 | 3.5 | 5.2 | 0.00 | 0.00 | 0.00 | 32 | 29.8 |
| 20260906080821 | 54 | 354 | 4.3 | 5.2 | 0.00 | 0.00 | 0.00 | 31 | 29.8 |
| 20260906080320 | 54 | 349 | 3.5 | 5.2 | 0.00 | 0.00 | 0.00 | 31 | 29.8 |
| 20260906075820 | 55 | 321 | 2.6 | 3.5 | 0.00 | 0.00 | 0.00 | 30 | 29.8 |
| 20260906075322 | 55 | 344 | 2.6 | 4.3 | 0.00 | 0.00 | 0.00 | 29 | 29.8 |
| 20260906074821 | 56 | 344 | 2.6 | 3.5 | 0.00 | 0.00 | 0.00 | 29 | 29.8 |
| 20260906074320 | 56 | 320 | 2.6 | 4.3 | 0.00 | 0.00 | 0.00 | 28 | 29.8 |
| 20260906073820 | 57 | 295 | 1.7 | 3.5 | 0.00 | 0.00 | 0.00 | 27 | 29.8 |
| 20260906073320 | 57 | 270 | 0.9 | 2.6 | 0.00 | 0.00 | 0.00 | 28 | 29.8 |
| 20260906072820 | 57 | 0.9 | 1.7 | 0.00 | 0.00 | 0.00 | 28 | 29.8 | |
| 20260906072321 | 57 | 1.7 | 2.6 | 0.00 | 0.00 | 0.00 | 27 | 29.8 | |
| 20260906071821 | 57 | 4 | 1.7 | 3.5 | 0.00 | 0.00 | 0.00 | 27 | 29.8 |
| 20260906071320 | 57 | 2 | 1.7 | 3.5 | 0.00 | 0.00 | 0.00 | 27 | 29.8 |
| 20260906070820 | 58 | 21 | 2.6 | 4.3 | 0.00 | 0.00 | 0.00 | 26 | 29.8 |
| 20260906070321 | 58 | 10 | 1.7 | 3.5 | 0.00 | 0.00 | 0.00 | 25 | 29.8 |
| 20260906065820 | 58 | 263 | 0.9 | 2.6 | 0.00 | 0.00 | 0.00 | 26 | 29.8 |
| 20260906065321 | 58 | 222 | 1.7 | 3.5 | 0.00 | 0.00 | 0.00 | 26 | 29.8 |
| 20260906064820 | 58 | 225 | 2.6 | 4.3 | 0.00 | 0.00 | 0.00 | 26 | 29.8 |
| 20260906064320 | 58 | 235 | 2.6 | 4.3 | 0.00 | 0.00 | 0.00 | 26 | 29.8 |
| 20260906063820 | 59 | 264 | 1.7 | 2.6 | 0.00 | 0.00 | 0.00 | 25 | 29.8 |
| 20260906063320 | 59 | 225 | 0.0 | 2.6 | 0.00 | 0.00 | 0.00 | 24 | 29.8 |
| 20260906062821 | 60 | 212 | 1.7 | 2.6 | 0.00 | 0.00 | 0.00 | 24 | 29.8 |
| 20260906062321 | 60 | 305 | 0.9 | 1.7 | 0.00 | 0.00 | 0.00 | 23 | 29.8 |
| 20260906061820 | 60 | 213 | 1.7 | 3.5 | 0.00 | 0.00 | 0.00 | 23 | 29.8 |
| 20260906061321 | 61 | 177 | 2.6 | 3.5 | 0.00 | 0.00 | 0.00 | 22 | 29.8 |
| 20260906060821 | 61 | 178 | 3.5 | 5.2 | 0.00 | 0.00 | 0.00 | 22 | 29.7 |
| 20260906060320 | 61 | 178 | 4.3 | 5.2 | 0.00 | 0.00 | 0.00 | 22 | 29.7 |
| 20260906055820 | 62 | 179 | 3.5 | 4.3 | 0.00 | 0.00 | 0.00 | 22 | 29.7 |
| 20260906055321 | 62 | 180 | 3.5 | 4.3 | 0.00 | 0.00 | 0.00 | 22 | 29.7 |
| 20260906054820 | 62 | 187 | 3.5 | 5.2 | 0.00 | 0.00 | 0.00 | 21 | 29.7 |
| 20260906054320 | 63 | 157 | 5.2 | 7.0 | 0.00 | 0.00 | 0.00 | 21 | 29.7 |
| 20260906053822 | 63 | 143 | 5.2 | 7.0 | 0.00 | 0.00 | 0.00 | 21 | 29.7 |
| 20260906053320 | 63 | 149 | 5.2 | 7.0 | 0.00 | 0.00 | 0.00 | 21 | 29.7 |
| 20260906052821 | 63 | 171 | 6.1 | 7.0 | 0.00 | 0.00 | 0.00 | 21 | 29.7 |
| 20260906052322 | 63 | 179 | 7.8 | 9.6 | 0.00 | 0.00 | 0.00 | 21 | 29.7 |
| 20260906051821 | 63 | 178 | 7.0 | 8.7 | 0.00 | 0.00 | 0.00 | 21 | 29.7 |
| 20260906051320 | 63 | 179 | 7.0 | 7.8 | 0.00 | 0.00 | 0.00 | 21 | 29.7 |
| 20260906050821 | 63 | 179 | 7.8 | 8.7 | 0.00 | 0.00 | 0.00 | 21 | 29.7 |
| 20260906050321 | 63 | 163 | 7.0 | 11.3 | 0.00 | 0.00 | 0.00 | 20 | 29.7 |
| 20260906045821 | 63 | 178 | 7.0 | 8.7 | 0.00 | 0.00 | 0.00 | 20 | 29.7 |
| 20260906045320 | 63 | 170 | 6.1 | 8.7 | 0.00 | 0.00 | 0.00 | 21 | 29.7 |
| 20260906044820 | 63 | 174 | 6.1 | 7.0 | 0.00 | 0.00 | 0.00 | 21 | 29.7 |
| 20260906044321 | 63 | 180 | 6.1 | 7.0 | 0.00 | 0.00 | 0.00 | 20 | 29.7 |
| 20260906043820 | 63 | 175 | 7.8 | 10.4 | 0.00 | 0.00 | 0.00 | 20 | 29.7 |
| 20260906043320 | 63 | 164 | 7.8 | 9.6 | 0.00 | 0.00 | 0.00 | 20 | 29.7 |
| 20260906042820 | 63 | 137 | 8.7 | 9.6 | 0.00 | 0.00 | 0.00 | 20 | 29.7 |
| 20260906042321 | 64 | 155 | 8.7 | 10.4 | 0.00 | 0.00 | 0.00 | 20 | 29.7 |
| 20260906041821 | 64 | 179 | 7.0 | 9.6 | 0.00 | 0.00 | 0.00 | 20 | 29.7 |
| 20260906041320 | 64 | 179 | 9.6 | 12.2 | 0.00 | 0.00 | 0.00 | 20 | 29.7 |
| 20260906040821 | 64 | 179 | 10.4 | 12.2 | 0.00 | 0.00 | 0.00 | 20 | 29.7 |
| 20260906035820 | 64 | 180 | 7.0 | 10.4 | 0.00 | 0.00 | 0.00 | 20 | 29.7 |
| 20260906035321 | 64 | 179 | 7.8 | 11.3 | 0.00 | 0.00 | 0.00 | 20 | 29.7 |
| 20260906034820 | 64 | 169 | 7.8 | 10.4 | 0.00 | 0.00 | 0.00 | 20 | 29.7 |
| 20260906034321 | 64 | 187 | 7.0 | 12.2 | 0.00 | 0.00 | 0.00 | 20 | 29.7 |
| 20260906033820 | 64 | 180 | 7.8 | 11.3 | 0.00 | 0.00 | 0.00 | 20 | 29.7 |
| 20260906033320 | 64 | 165 | 7.8 | 10.4 | 0.00 | 0.00 | 0.00 | 20 | 29.7 |
| 20260906032820 | 64 | 151 | 7.0 | 10.4 | 0.00 | 0.00 | 0.00 | 20 | 29.7 |
| 20260906032321 | 64 | 199 | 5.2 | 11.3 | 0.00 | 0.00 | 0.00 | 19 | 29.7 |
| 20260906031821 | 64 | 167 | 8.7 | 13.0 | 0.00 | 0.00 | 0.00 | 20 | 29.7 |
| 20260906031321 | 64 | 135 | 5.2 | 11.3 | 0.00 | 0.00 | 0.00 | 19 | 29.7 |
| 20260906030820 | 65 | 172 | 5.2 | 11.3 | 0.00 | 0.00 | 0.00 | 19 | 29.7 |
| 20260906030320 | 65 | 201 | 10.4 | 14.8 | 0.00 | 0.00 | 0.00 | 19 | 29.7 |
| 20260906025821 | 64 | 183 | 9.6 | 16.5 | 0.00 | 0.00 | 0.00 | 19 | 29.7 |
| 20260906025320 | 65 | 188 | 8.7 | 16.5 | 0.00 | 0.00 | 0.00 | 19 | 29.7 |
| 20260906024821 | 65 | 204 | 10.4 | 17.4 | 0.00 | 0.00 | 0.00 | 19 | 29.7 |
| 20260906024320 | 65 | 204 | 8.7 | 18.2 | 0.00 | 0.00 | 0.00 | 19 | 29.7 |
| 20260906023821 | 64 | 193 | 8.7 | 12.2 | 0.00 | 0.00 | 0.00 | 20 | 29.7 |
| 20260906023320 | 65 | 183 | 8.7 | 19.1 | 0.00 | 0.00 | 0.00 | 19 | 29.7 |
| 20260906022820 | 65 | 214 | 8.7 | 12.2 | 0.00 | 0.00 | 0.00 | 19 | 29.7 |
| 20260906022320 | 66 | 211 | 9.6 | 18.2 | 0.00 | 0.00 | 0.00 | 18 | 29.7 |
| 20260906021820 | 65 | 250 | 7.8 | 14.8 | 0.00 | 0.00 | 0.00 | 19 | 29.7 |
| 20260906021321 | 66 | 248 | 9.6 | 17.4 | 0.00 | 0.00 | 0.00 | 19 | 29.7 |
| 20260906020821 | 66 | 233 | 11.3 | 16.5 | 0.00 | 0.00 | 0.00 | 18 | 29.6 |
| 20260906020320 | 66 | 243 | 10.4 | 15.6 | 0.00 | 0.00 | 0.00 | 18 | 29.6 |
| 20260906015820 | 66 | 252 | 10.4 | 14.8 | 0.00 | 0.00 | 0.00 | 19 | 29.6 |
| 20260906015320 | 67 | 236 | 8.7 | 13.0 | 0.00 | 0.00 | 0.00 | 18 | 29.6 |
| 20260906014821 | 67 | 225 | 7.8 | 12.2 | 0.00 | 0.00 | 0.00 | 18 | 29.6 |
| 20260906014320 | 67 | 216 | 7.8 | 16.5 | 0.00 | 0.00 | 0.00 | 18 | 29.6 |
| 20260906013357 | 69 | 245 | 9.6 | 13.9 | 0.00 | 0.00 | 0.00 | 17 | 29.6 |
| 20260906012820 | 70 | 249 | 9.6 | 13.9 | 0.00 | 0.00 | 0.00 | 18 | 29.6 |
| 20260906012321 | 70 | 231 | 9.6 | 13.9 | 0.00 | 0.00 | 0.00 | 17 | 29.6 |
| 20260906011821 | 71 | 235 | 8.7 | 12.2 | 0.00 | 0.00 | 0.00 | 17 | 29.6 |
| 20260906011320 | 72 | 234 | 8.7 | 12.2 | 0.00 | 0.00 | 0.00 | 17 | 29.6 |
| 20260906010821 | 72 | 228 | 10.4 | 13.9 | 0.00 | 0.00 | 0.00 | 16 | 29.6 |
| 20260906010322 | 73 | 234 | 8.7 | 11.3 | 0.00 | 0.00 | 0.00 | 17 | 29.6 |
| 20260906005821 | 74 | 238 | 8.7 | 11.3 | 0.00 | 0.00 | 0.00 | 17 | 29.6 |
| 20260906005322 | 75 | 194 | 12.2 | 16.5 | 0.00 | 0.00 | 0.00 | 15 | 29.5 |
| 20260906004820 | 75 | 205 | 13.0 | 16.5 | 0.00 | 0.00 | 0.00 | 14 | 29.5 |
| 20260906004320 | 75 | 197 | 12.2 | 16.5 | 0.00 | 0.00 | 0.00 | 14 | 29.5 |
| 20260906003820 | 75 | 200 | 13.0 | 16.5 | 0.00 | 0.00 | 0.00 | 14 | 29.5 |
| 20260906003320 | 76 | 181 | 14.8 | 18.2 | 0.00 | 0.00 | 0.00 | 13 | 29.5 |
| 20260906002820 | 75 | 198 | 14.8 | 19.1 | 0.00 | 0.00 | 0.00 | 14 | 29.5 |
| 20260906002321 | 75 | 208 | 14.8 | 17.4 | 0.00 | 0.00 | 0.00 | 14 | 29.5 |
| 20260906001821 | 76 | 206 | 16.5 | 20.0 | 0.00 | 0.00 | 0.00 | 13 | 29.5 |
| 20260906001321 | 76 | 186 | 15.6 | 19.1 | 0.00 | 0.00 | 0.00 | 13 | 29.5 |
| 20260906000821 | 77 | 181 | 16.5 | 21.7 | 0.00 | 0.00 | 0.00 | 13 | 29.5 |
| 20260906000320 | 76 | 187 | 20.0 | 27.8 | 0.00 | 0.00 | 0.00 | 13 | 29.5 |
| 20260905235820 | 77 | 201 | 15.6 | 21.7 | 0.00 | 0.00 | 0.00 | 13 | 29.5 |
| 20260905235321 | 75 | 202 | 14.8 | 19.1 | 0.00 | 0.00 | 0.00 | 13 | 29.5 |
| 20260905234821 | 75 | 209 | 13.9 | 17.4 | 0.00 | 0.00 | 0.00 | 14 | 29.5 |
| 20260905234321 | 76 | 209 | 18.2 | 23.5 | 0.00 | 0.00 | 0.00 | 13 | 29.5 |
| 20260905233820 | 77 | 189 | 17.4 | 22.6 | 0.00 | 0.00 | 0.00 | 13 | 29.5 |
| 20260905233321 | 77 | 199 | 18.2 | 24.3 | 0.00 | 0.00 | 0.00 | 13 | 29.5 |
| 20260905232820 | 77 | 190 | 20.0 | 25.2 | 0.00 | 0.00 | 0.00 | 13 | 29.5 |
| 20260905232321 | 77 | 181 | 20.9 | 29.5 | 0.00 | 0.00 | 0.00 | 12 | 29.5 |
| 20260905231820 | 77 | 184 | 21.7 | 29.5 | 0.00 | 0.00 | 0.00 | 12 | 29.5 |
| 20260905231320 | 78 | 178 | 20.9 | 29.5 | 0.00 | 0.00 | 0.00 | 12 | 29.5 |
| 20260905230821 | 77 | 173 | 15.6 | 21.7 | 0.00 | 0.00 | 0.00 | 12 | 29.5 |